Latest Weather Observations for Brisbane

IDQ60901

Issued at 11:21 pm EST Sunday 29 May 2016 (issued every 10 minutes, with the page automatically refreshed every 10 minutes)

About weather observations | Map of Brisbane area stations | Latest observations for Brisbane area | Other Formats
Station Details ID: 040913 Name: BRISBANE Lat: -27.48 Lon: 153.04 Height: 8.13 m
Data from the previous 72 hours. | See also: Recent months at Brisbane
Date/Time
EST
Tmp

°C
App
Tmp
°C
Dew
Point
°C
Rel
Hum
%
Delta-T

°C
Wind Press
QNH
hPa
Press
MSL
hPa
Rain
since
9 am
mm
Dir
 
Spd
km/h
Gust
km/h
Spd
kts
Gust
kts
29/11:00pm 11.6 10.6 8.8 83 1.4 SSE 4 7 2 4 1020.7 1020.7 0.0
29/10:30pm 11.1 10.3 8.3 83 1.4 SW 2 6 1 3 1020.6 1020.6 0.0
29/10:00pm 11.5 11.3 9.1 85 1.2 CALM 0 0 0 0 1020.5 1020.5 0.0
29/09:30pm 11.6 11.4 9.0 84 1.3 CALM 0 0 0 0 1020.4 1020.4 0.0
29/09:00pm 11.7 11.4 8.6 81 1.5 CALM 0 0 0 0 1020.2 1020.2 0.0
29/08:30pm 12.2 11.8 8.3 77 1.9 CALM 0 0 0 0 1020.0 1020.0 0.0
29/08:00pm 12.4 11.9 7.7 73 2.3 CALM 0 0 0 0 1019.9 1019.9 0.0
29/07:30pm 13.1 12.6 7.8 70 2.6 CALM 0 0 0 0 1019.6 1019.6 0.0
29/07:00pm 13.4 12.8 7.6 68 2.8 CALM 0 0 0 0 1019.2 1019.2 0.0
29/06:30pm 14.0 13.4 7.3 64 3.3 CALM 0 0 0 0 1018.8 1018.8 0.0
29/06:00pm 15.2 14.6 7.3 59 3.9 CALM 0 0 0 0 1018.5 1018.5 0.0
29/05:30pm 16.8 15.6 6.6 51 5.0 ENE 2 4 1 2 1017.9 1017.9 0.0
29/05:00pm 18.5 16.7 7.0 47 5.8 NE 6 9 3 5 1017.4 1017.4 0.0
29/04:30pm 19.7 17.5 6.4 42 6.7 NE 7 13 4 7 1017.1 1017.1 0.0
29/04:00pm 21.8 19.7 5.7 35 8.0 NE 6 11 3 6 1016.7 1016.7 0.0
29/03:30pm 23.3 20.8 1.6 24 10.2 NW 4 9 2 5 1016.4 1016.4 0.0
29/03:00pm 23.0 20.9 1.4 24 10.0 SW 2 6 1 3 1016.2 1016.2 0.0
29/02:30pm 23.1 21.0 2.0 25 9.9 NW 2 7 1 4 1016.1 1016.1 0.0
29/02:00pm 23.2 20.5 2.7 26 9.8 WNW 6 11 3 6 1016.1 1016.1 0.0
29/01:30pm 22.3 19.6 2.9 28 9.2 WNW 6 13 3 7 1016.0 1016.0 0.0
29/01:00pm 21.6 18.7 2.8 29 8.9 WNW 7 11 4 6 1016.2 1016.2 0.0
29/12:30pm 21.4 18.5 2.6 29 8.8 W 7 19 4 10 1016.5 1016.5 0.0
29/12:00pm 21.4 18.9 3.6 31 8.5 W 6 11 3 6 1017.0 1017.0 0.0
29/11:30am 20.8 18.7 4.0 33 8.1 W 4 7 2 4 1017.6 1017.6 0.0
29/11:00am 19.5 17.0 4.0 36 7.4 WSW 6 11 3 6 1018.0 1018.0 0.0
29/10:30am 18.6 16.1 4.0 38 6.9 WSW 6 11 3 6 1018.2 1018.2 0.0
29/10:00am 18.3 15.9 4.5 40 6.6 SW 6 13 3 7 1018.6 1018.6 0.0
29/09:30am 16.9 14.2 3.6 41 6.2 SW 7 13 4 7 1018.9 1018.9 0.0
29/09:00am 16.7 13.7 4.1 43 5.9 W 9 15 5 8 1019.0 1019.0 0.0
29/08:30am 15.8 13.1 3.9 45 5.5 WSW 7 15 4 8 1018.6 1018.6 0.0
29/08:00am 15.1 12.5 4.2 48 5.0 W 7 13 4 7 1018.2 1018.2 0.0
29/07:30am 14.1 11.7 4.1 51 4.6 WSW 6 13 3 7 1017.8 1017.8 0.0
29/07:00am 12.6 10.6 4.3 57 3.8 WSW 4 7 2 4 1017.5 1017.5 0.0
29/06:30am 12.2 10.1 3.9 57 3.7 SW 4 9 2 5 1017.0 1017.0 0.0
29/06:00am 12.2 10.4 3.7 56 3.8 SSW 2 7 1 4 1016.8 1016.8 0.0
29/05:30am 13.5 10.1 4.1 53 4.3 W 11 20 6 11 1016.2 1016.2 0.0
29/05:00am 13.4 10.8 4.0 53 4.3 WSW 7 15 4 8 1016.1 1016.1 0.0
29/04:30am 13.8 10.8 3.9 51 4.5 WSW 9 15 5 8 1015.8 1015.8 0.0
29/04:00am 14.2 10.8 3.9 50 4.7 WSW 11 19 6 10 1015.8 1015.8 0.0
29/03:30am 14.3 11.6 3.5 48 4.9 WSW 7 15 4 8 1015.7 1015.7 0.0
29/03:00am 14.0 11.4 3.2 48 4.8 W 6 13 3 7 1015.9 1015.9 0.0
29/02:30am 13.4 10.8 3.2 50 4.5 W 6 13 3 7 1015.7 1015.7 0.0
29/02:00am 14.9 11.7 3.1 45 5.3 W 9 17 5 9 1015.7 1015.7 0.0
29/01:30am 15.2 12.3 2.7 43 5.6 WSW 7 19 4 10 1015.7 1015.7 0.0
29/01:00am 15.7 13.0 2.5 41 5.9 W 6 11 3 6 1015.7 1015.7 0.0
29/12:30am 15.7 12.7 2.2 40 6.0 W 7 17 4 9 1015.4 1015.4 0.0
29/12:00am 16.1 12.1 2.9 41 6.0 W 13 22 7 12 1014.9 1014.9 0.0
 
Date/Time
EST
Tmp

°C
App
Tmp
°C
Dew
Point
°C
Rel
Hum
%
Delta-T

°C
Wind Press
QNH
hPa
Press
MSL
hPa
Rain
since
9 am
mm
Dir
 
Spd
km/h
Gust
km/h
Spd
kts
Gust
kts
28/11:30pm 16.4 13.1 2.4 39 6.3 W 9 19 5 10 1015.1 1015.1 0.0
28/11:00pm 16.6 13.2 1.9 37 6.5 WSW 9 20 5 11 1015.3 1015.3 0.0
28/10:30pm 17.1 12.6 1.9 36 6.8 W 15 28 8 15 1015.2 1015.2 0.0
28/10:00pm 17.0 14.2 1.8 36 6.8 W 6 13 3 7 1015.4 1015.4 0.0
28/09:30pm 17.8 14.5 2.5 36 7.0 W 9 17 5 9 1015.1 1015.1 0.0
28/09:00pm 17.9 14.6 2.2 35 7.1 W 9 22 5 12 1015.1 1015.1 0.0
28/08:30pm 18.2 15.3 2.5 35 7.2 W 7 20 4 11 1015.1 1015.1 0.0
28/08:00pm 18.4 15.6 3.1 36 7.1 W 7 15 4 8 1014.5 1014.5 0.0
28/07:30pm 18.9 15.6 2.7 34 7.5 W 9 15 5 8 1014.3 1014.3 0.0
28/07:00pm 19.5 15.5 2.8 33 7.8 W 13 30 7 16 1013.8 1013.8 0.0
28/06:30pm 19.8 15.8 2.6 32 8.0 W 13 22 7 12 1013.3 1013.3 0.0
28/06:00pm 20.1 16.1 2.9 32 8.1 W 13 28 7 15 1012.9 1012.9 0.0
28/05:30pm 20.5 16.5 2.8 31 8.3 W 13 28 7 15 1012.3 1012.3 0.0
28/05:00pm 21.1 16.4 2.9 30 8.6 W 17 32 9 17 1011.6 1011.6 0.0
28/04:30pm 21.6 16.4 3.8 31 8.6 WNW 20 37 11 20 1011.1 1011.1 0.0
28/04:00pm 22.2 17.3 4.3 31 8.8 WNW 19 33 10 18 1010.6 1010.6 0.0
28/03:30pm 22.4 17.3 4.0 30 9.0 WNW 20 39 11 21 1010.3 1010.3 0.0
28/03:00pm 22.7 17.2 3.8 29 9.2 W 22 44 12 24 1010.3 1010.3 0.0
28/02:30pm 23.0 17.9 4.0 29 9.3 W 20 44 11 24 1010.1 1010.1 0.0
28/02:00pm 23.2 18.5 5.2 31 9.0 WSW 19 43 10 23 1009.9 1009.9 0.0
28/01:30pm 23.0 18.6 5.0 31 9.0 W 17 30 9 16 1010.0 1010.0 0.0
28/01:00pm 22.4 17.5 4.9 32 8.7 WNW 20 32 11 17 1010.4 1010.4 0.0
28/12:30pm 22.9 18.5 4.9 31 8.9 W 17 41 9 22 1010.7 1010.7 0.0
28/12:00pm 21.8 18.0 5.7 35 8.1 W 15 28 8 15 1011.1 1011.1 0.0
28/11:30am 21.1 16.7 4.6 34 8.0 W 17 30 9 16 1011.5 1011.5 0.0
28/11:00am 20.7 16.7 5.1 36 7.7 W 15 28 8 15 1011.9 1011.9 0.0
28/10:30am 19.3 15.7 5.0 39 6.9 W 13 24 7 13 1012.6 1012.6 0.0
28/10:00am 19.3 16.5 5.0 39 6.9 W 9 17 5 9 1013.3 1013.3 0.0
28/09:30am 18.4 15.5 4.6 40 6.6 WSW 9 17 5 9 1013.5 1013.5 0.0
28/09:00am 18.1 15.3 5.0 42 6.3 W 9 17 5 9 1013.6 1013.6 0.0
28/08:30am 17.0 14.2 5.3 46 5.6 W 9 17 5 9 1013.5 1013.5 0.0
28/08:00am 16.1 13.6 4.8 47 5.3 W 7 15 4 8 1013.3 1013.3 0.0
28/07:30am 14.6 13.7 5.9 56 4.2 CALM 0 4 0 2 1013.1 1013.1 0.0
28/07:00am 12.0 10.8 4.7 61 3.3 CALM 0 2 0 1 1012.8 1012.8 0.0
28/06:30am 14.1 12.2 4.9 54 4.3 WSW 4 9 2 5 1012.5 1012.5 0.0
28/06:00am 13.9 11.4 4.8 54 4.2 W 7 13 4 7 1012.1 1012.1 0.0
28/05:30am 14.0 11.7 4.6 53 4.3 W 6 11 3 6 1012.0 1012.0 0.0
28/05:00am 14.0 11.8 5.1 55 4.2 W 6 9 3 5 1011.8 1011.8 0.0
28/04:30am 11.6 10.5 5.0 64 3.0 CALM 0 0 0 0 1011.7 1011.7 0.0
28/04:00am 11.6 10.4 4.6 62 3.2 CALM 0 0 0 0 1011.9 1011.9 0.0
28/03:30am 13.4 11.5 4.8 56 4.0 SSW 4 6 2 3 1011.7 1011.7 0.0
28/03:00am 13.9 11.7 5.3 56 4.0 WSW 6 9 3 5 1011.4 1011.4 0.0
28/02:30am 14.7 12.4 5.0 52 4.5 W 6 13 3 7 1011.5 1011.5 0.0
28/02:00am 12.7 11.7 5.4 61 3.4 CALM 0 4 0 2 1011.1 1011.1 0.0
28/01:30am 13.6 12.2 5.3 57 3.9 E 2 4 1 2 1011.1 1011.1 0.0
28/01:00am 15.3 13.8 5.2 51 4.8 NW 2 7 1 4 1011.1 1011.1 0.0
28/12:30am 16.0 14.2 5.6 50 5.0 WSW 4 9 2 5 1011.0 1011.0 0.0
28/12:00am 16.5 14.3 5.5 48 5.3 SW 6 13 3 7 1010.8 1010.8 0.0
 
Date/Time
EST
Tmp

°C
App
Tmp
°C
Dew
Point
°C
Rel
Hum
%
Delta-T

°C
Wind Press
QNH
hPa
Press
MSL
hPa
Rain
since
9 am
mm
Dir
 
Spd
km/h
Gust
km/h
Spd
kts
Gust
kts
27/11:30pm 17.0 13.9 5.6 47 5.5 W 11 20 6 11 1010.6 1010.6 0.0
27/11:00pm 17.5 14.5 5.8 46 5.7 W 11 28 6 15 1010.8 1010.8 0.0
27/10:30pm 17.9 14.6 6.4 47 5.7 W 13 26 7 14 1010.9 1010.9 0.0
27/10:00pm 18.2 15.0 7.0 48 5.6 W 13 26 7 14 1010.6 1010.6 0.0
27/09:30pm 18.5 15.0 7.3 48 5.7 W 15 30 8 16 1010.4 1010.4 0.0
27/09:00pm 19.1 15.7 7.5 47 5.9 W 15 28 8 15 1010.4 1010.4 0.0
27/08:30pm 19.4 16.4 7.8 47 5.9 W 13 22 7 12 1010.6 1010.6 0.0
27/08:00pm 19.9 16.6 7.9 46 6.2 W 15 24 8 13 1010.4 1010.4 0.0
27/07:30pm 20.3 17.1 8.3 46 6.2 W 15 26 8 14 1010.2 1010.2 0.0
27/07:00pm 20.8 18.5 9.1 47 6.2 W 11 19 6 10 1009.6 1009.6 0.0
27/06:30pm 21.3 18.7 9.2 46 6.4 W 13 32 7 17 1009.1 1009.1 0.0
27/06:00pm 21.9 19.5 10.1 47 6.4 W 13 22 7 12 1008.4 1008.4 0.0
27/05:30pm 22.2 21.0 10.4 47 6.5 W 7 15 4 8 1008.0 1008.0 0.0
27/05:00pm 23.0 20.6 10.1 44 7.1 W 13 22 7 12 1007.8 1007.8 0.0
27/04:30pm 23.7 20.8 9.7 41 7.6 W 15 28 8 15 1007.1 1007.1 0.0
27/04:00pm 24.4 21.0 9.2 38 8.3 WNW 17 28 9 15 1006.8 1006.8 0.0
27/03:30pm 24.8 21.4 9.1 37 8.5 W 17 32 9 17 1006.2 1006.2 0.0
27/03:00pm 25.0 21.2 9.7 38 8.4 W 20 37 11 20 1006.2 1006.2 0.0
27/02:30pm 25.5 22.1 10.5 39 8.4 W 19 33 10 18 1006.5 1006.5 0.0
27/02:00pm 24.9 21.1 11.1 42 7.8 W 22 43 12 23 1006.6 1006.6 0.0
27/01:30pm 24.6 20.8 11.2 43 7.5 W 22 41 12 22 1006.6 1006.6 0.0
27/01:00pm 24.3 21.1 11.3 44 7.3 W 19 33 10 18 1006.7 1006.7 0.0
27/12:30pm 23.9 20.6 10.9 44 7.2 W 19 39 10 21 1007.2 1007.2 0.0
27/12:00pm 24.6 21.3 10.8 42 7.7 W 19 32 10 17 1007.6 1007.6 0.0
27/11:30am 24.2 20.9 11.5 45 7.2 W 20 41 11 22 1007.7 1007.7 0.0
27/11:00am 23.3 19.7 12.0 49 6.4 WNW 22 37 12 20 1008.1 1008.1 0.0
27/10:30am 23.4 21.8 13.8 54 5.6 W 15 28 8 15 1008.3 1008.3 0.0
27/10:00am 22.7 19.9 14.3 59 4.9 W 22 35 12 19 1009.1 1009.1 0.0
27/09:30am 22.9 22.3 14.5 59 5.0 W 11 28 6 15 1009.2 1009.2 0.0
27/09:00am 22.1 20.3 14.5 62 4.5 WNW 17 32 9 17 1008.6 1008.6 0.0
27/08:30am 21.4 19.7 14.8 66 3.9 WNW 17 26 9 14 1008.5 1008.5 0.0
27/08:00am 21.4 20.9 15.0 67 3.8 W 11 24 6 13 1008.4 1008.4 0.0
27/07:30am 20.7 19.1 15.0 70 3.4 W 17 30 9 16 1008.5 1008.5 0.0
27/07:00am 21.0 20.5 14.9 68 3.6 W 11 24 6 13 1008.0 1008.0 0.0
27/06:30am 21.2 20.8 15.3 69 3.5 W 11 19 6 10 1007.5 1007.5 0.0
27/06:00am 21.4 21.1 15.5 69 3.5 W 11 22 6 12 1007.3 1007.3 0.0
27/05:30am 21.3 21.0 15.4 69 3.5 W 11 20 6 11 1006.7 1006.7 0.0
27/05:00am 21.4 21.4 15.3 68 3.6 W 9 15 5 8 1006.5 1006.5 0.0
27/04:30am 21.3 21.4 15.4 69 3.5 W 9 19 5 10 1006.9 1006.9 0.0
27/04:00am 20.9 20.8 15.0 69 3.5 SW 9 15 5 8 1006.7 1006.7 0.0
27/03:30am 18.6 20.1 14.7 78 2.3 CALM 0 6 0 3 1006.3 1006.3 0.0
27/03:00am 18.4 19.8 14.5 78 2.3 CALM 0 0 0 0 1006.5 1006.5 0.0
27/02:30am 18.8 20.2 14.3 75 2.6 CALM 0 0 0 0 1006.3 1006.3 0.0
27/02:00am 19.6 21.2 15.0 75 2.7 CALM 0 2 0 1 1006.5 1006.5 0.0
27/01:30am 18.6 20.1 14.7 78 2.3 CALM 0 0 0 0 1007.0 1007.0 0.0
27/01:00am 18.9 20.2 14.2 74 2.7 CALM 0 0 0 0 1006.6 1006.6 0.0
27/12:30am 20.1 21.7 14.9 72 3.0 CALM 0 2 0 1 1006.9 1006.9 0.0
27/12:00am 20.5 22.1 14.8 70 3.3 CALM 0 0 0 0 1007.7 1007.7 0.0
 
Date/Time
EST
Tmp

°C
App
Tmp
°C
Dew
Point
°C
Rel
Hum
%
Delta-T

°C
Wind Press
QNH
hPa
Press
MSL
hPa
Rain
since
9 am
mm
Dir
 
Spd
km/h
Gust
km/h
Spd
kts
Gust
kts
26/11:30pm 21.3 23.0 15.2 68 3.6 CALM 0 2 0 1 1007.9 1007.9 0.0

Latest Capital City Observations: Canberra | Sydney | Melbourne | Brisbane | Adelaide | Perth | Hobart | Darwin

Other Formats:

Comma delimited format used in spreadsheet applications
http://www.bom.gov.au/fwo/IDQ60901/IDQ60901.94576.axf

JavaScript Object Notation format (JSON) in row-major order
http://www.bom.gov.au/fwo/IDQ60901/IDQ60901.94576.json